#timestamp,LO_Frequency,Hit,StdDev 
1597291215.3,286047002.5,N
1597291235.1,286047000.5,N
1597291255.9,286047001.1,N
1597291275.7,286046998.4,N
1597291295.5,286046998.4,N
1597291315.4,286047001.2,N
1597291335.2,286046996.8,N
1597291355.0,286046998.5,N
1597291355.9,286046998.5,N
1597291375.8,286047000.9,N
1597291395.6,286047000.4,N
1597291415.5,286047001.9,N
1597291435.3,286047001.6,N
1597291455.1,286047001.4,N
1597291475.9,286047001.4,N
1597291495.7,286047002.3,N
1597291515.5,286047002.3,N
1597291535.4,286046998.7,N
1597291555.2,286046999.1,N
1597291575.1,286046996.9,N
1597291576.0,286046996.9,N
1597291595.8,286046998.3,N
1597291615.6,286047000.0,N
1597291635.5,286047003.8,N
1597291655.3,286047005.5,N
1597291675.1,286047005.0,N
1597291695.9,286047003.6,N
1597291715.7,286047001.6,N
1597291735.6,286047001.4,N
1597291755.4,286047000.4,N
1597291775.2,286047001.8,N
1597291795.1,286047001.8,N
1597291796.0,286047001.8,N
1597291815.8,286047002.1,N
1597291835.6,286046999.9,N
1597291855.5,286046998.6,N
1597291875.3,286046996.5,N
1597291895.2,286046998.6,N
1597291915.9,286046998.9,N
1597291935.7,286047000.1,N
1597291955.6,286047000.6,N
1597291975.4,286047000.0,N
1597291995.2,286047005.2,N
1597292015.1,286047008.9,Y
1597292016.0,286047008.9,P
1597292035.8,286047008.0,N
1597292055.7,286047009.3,N
1597292075.5,286047010.3,N
1597292095.3,286047006.5,N
1597292115.2,286047004.3,N
1597292135.0,286046998.5,N
1597292135.9,286046998.5,N
1597292155.8,286046997.3,N
1597292175.6,286046998.3,N
1597292195.5,286047006.0,N
1597292215.3,286047003.6,N
1597292235.1,286047005.5,N
1597292255.9,286047004.3,N
1597292275.7,286047005.9,N
1597292295.5,286047004.7,N
1597292315.4,286047007.2,N
1597292335.2,286047006.8,N
1597292355.1,286047006.4,N
1597292356.0,286047006.4,N
1597292375.8,286047010.7,N
1597292395.6,286047012.1,Y
1597292415.5,286047007.0,P
1597292435.3,286047006.6,P
1597292455.1,286047006.7,P
1597292475.9,286047010.8,Y
1597292495.7,286047003.3,P
1597292515.6,286047005.5,P
1597292535.4,286047005.5,P
1597292555.2,286047005.9,Y
1597292575.1,286046998.5,P
1597292576.0,286046998.5,N
1597292595.8,286047002.0,N
1597292615.7,286047005.4,N
1597292635.5,286047005.1,N
1597292655.3,286047005.0,N
1597292675.2,286047007.5,N
1597292695.0,286047003.3,N
1597292695.9,286047003.3,N
1597292715.8,286047006.0,N
1597292735.6,286047004.7,N
1597292755.4,286047003.0,N
1597292775.3,286047007.4,N
1597292795.1,286047008.0,N
1597292815.8,286047006.7,N
1597292835.7,286047006.1,N
1597292855.5,286047006.2,N
1597292875.4,286047009.6,Y
1597292895.2,286047007.0,P
1597292915.0,286047008.9,P
1597292915.9,286047008.9,P
1597292935.8,286047006.4,Y
1597292955.6,286047001.0,P
1597292975.4,286047000.2,N
1597292995.3,286046997.0,N
1597293015.1,286046996.6,N
1597293035.9,286047001.9,N
1597293055.5,286047000.4,N
1597293075.3,286047000.9,N
1597293095.2,286047001.1,N
1597293115.0,286046997.5,N
1597293115.9,286046997.5,N
1597293135.8,286046995.3,N
1597293155.6,286046996.3,N
1597293175.4,286046994.6,N
1597293195.3,286046995.5,N
1597293215.1,286046993.7,N
1597293235.8,286046993.3,N
1597293255.7,286046993.4,N
1597293275.5,286046997.5,N
1597293295.4,286046997.1,N
1597293315.2,286046998.9,N
1597293335.0,286046994.5,N
1597293335.9,286046994.5,N
1597293355.8,286046993.1,N
1597293375.6,286046993.0,N
1597293395.4,286046991.0,N
1597293415.3,286046986.3,Y
1597293435.1,286046990.9,P
1597293455.9,286046989.1,P
1597293475.7,286046993.2,N
1597293495.6,286046993.1,N
1597293515.4,286046991.5,Y
1597293535.2,286046995.1,P
1597293555.1,286046999.2,N
1597293556.0,286046999.2,N
1597293575.8,286046998.8,N
1597293595.7,286047000.9,N
1597293615.5,286047002.7,N
1597293635.3,286047000.0,N
1597293655.2,286047004.1,N
1597293675.0,286047005.7,N
1597293675.9,286047005.7,N
1597293695.7,286047006.7,N
1597293715.6,286047007.3,N
1597293735.4,286047006.3,N
1597293755.3,286047004.9,N
1597293775.1,286047003.1,N
1597293776.0,286047003.1,N
1597293795.8,286046999.9,N
1597293815.7,286047000.3,N
1597293835.5,286047004.4,N
1597293855.4,286047001.4,N
1597293875.2,286047001.9,N
1597293895.0,286047004.2,N
1597293895.9,286047004.2,N
1597293915.8,286047005.4,N
1597293935.6,286047005.1,N
1597293955.4,286047005.4,N
1597293975.3,286047005.1,N
1597293995.1,286047005.4,N
1597294015.9,286047004.1,N
1597294035.7,286047003.9,N
1597294055.5,286046999.7,N
1597294075.4,286047000.8,N
1597294095.2,286047001.5,N
1597294115.0,286047001.5,N
1597294115.9,286047001.5,N
1597294135.8,286047004.2,N
1597294155.6,286047004.1,N
1597294175.5,286047003.2,N
1597294195.3,286047004.3,N
1597294215.1,286047002.2,N
1597294235.9,286046998.3,N
1597294255.7,286047001.1,N
1597294275.6,286047000.6,N
1597294295.4,286046998.5,N
1597294315.2,286047000.0,N
1597294335.1,286046998.2,N
1597294336.0,286046998.2,N
1597294355.8,286046998.5,N
1597294375.6,286047000.1,N
1597294395.5,286047000.6,N
1597294415.3,286047002.7,N
1597294435.1,286047002.0,N
1597294436.0,286047002.0,N
1597294455.8,286047001.7,N
1597294475.7,286046999.4,N
1597294495.5,286046993.7,N
1597294515.3,286046991.9,Y
1597294535.2,286046996.3,P
1597294555.0,286046993.9,N
1597294555.9,286046993.9,N
1597294575.8,286046995.7,N
1597294595.6,286046998.8,N
1597294615.4,286047003.7,N
1597294635.3,286047004.1,N
1597294655.1,286047005.3,N
1597294675.8,286047005.7,N
1597294695.7,286047006.0,N
1597294715.5,286047004.9,N
1597294735.4,286047006.7,N
1597294755.2,286047007.3,N
1597294775.0,286047007.9,N
1597294775.9,286047007.9,N
1597294795.8,286047010.4,N
